Costa Luminosa — ICGU — position and weather

sailwx.info

Track history (hours):
 
Tides and Currents Weather Stations Pressure Air Temp Water Temp Dewpoint Dewpoint Depression Visibility Wind Speed Wind Dir Waves Ship Positions

Costa Luminosa

Last reported at 2014-Nov-26 08:33 UTC. Time now 2014-Nov-26 08:46 UTC.
Position N 43°21' E 005°20'.

Length 292 m; draft 8.1 m.

Type: Ship. MMSI: 247257900.

Date/timePositionNaut miles runAvg speedWind from/ knotsBaromVisibWave heightAir tempDewpointWater temp
2014-Nov-26 08:33N 43°21' E 005°20'0 0.1
2014-Nov-26 07:33N 43°21' E 005°20'8 8.3
2014-Nov-26 06:33N 43°16' E 005°11'1513.9
2014-Nov-26 05:31N 43°03' E 004°60'3315.5
2014-Nov-26 03:23N 42°40' E 004°28'1215.0
2014-Nov-26 02:33N 42°31' E 004°16'1615.6
2014-Nov-26 01:33N 42°20' E 004°01'1616.0
2014-Nov-26 00:33N 42°09' E 003°46'1615.4
2014-Nov-25 23:32N 41°58' E 003°31'1515.0
2014-Nov-25 22:33N 41°48' E 003°16'1515.1
2014-Nov-25 21:33N 41°39' E 002°60'1615.9
2014-Nov-25 20:33N 41°30' E 002°42'1615.9
2014-Nov-25 19:32N 41°21' E 002°24'1111.3
2014-Nov-25 18:32N 41°17' E 002°10'17 1.2
2014-Nov-25 04:32N 41°15' E 002°33'1210.6
2014-Nov-25 03:26N 41°15' E 002°48'910.7
2014-Nov-25 02:33N 41°15' E 003°01'1110.4
2014-Nov-25 01:31N 41°16' E 003°15'1010.3
2014-Nov-25 00:33N 41°16' E 003°28'1010.1
2014-Nov-24 23:33N 41°16' E 003°42'1411.0
2014-Nov-24 22:15N 41°16' E 004°01'2110.3
2014-Nov-24 20:13N 41°16' E 004°29'11 9.9
2014-Nov-24 19:09N 41°16' E 004°43'710.3
2014-Nov-24 18:28N 41°16' E 004°52'5811.4
2014-Nov-24 13:25N 41°17' E 006°09'910.4
2014-Nov-24 12:32N 41°17' E 006°21'1110.2
2014-Nov-24 11:29N 41°17' E 006°35'1310.7
2014-Nov-24 10:19N 41°18' E 006°52'18614.1
2014-Nov-23 21:08N 41°52' E 010°56'114 4.6
2014-Nov-22 20:33N 43°24' E 009°25'1514.9
2014-Nov-22 19:33N 43°38' E 009°19'1515.0
2014-Nov-22 18:33N 43°52' E 009°12'1515.2
2014-Nov-22 17:33N 44°07' E 009°05'1515.0
2014-Nov-22 16:33N 44°21' E 008°58'4 4.3
2014-Nov-22 15:33N 44°25' E 008°55'0 0.0
2014-Nov-22 14:30N 44°25' E 008°55'0 0.0
2014-Nov-22 13:21N 44°25' E 008°55'0 0.0
2014-Nov-22 12:33N 44°25' E 008°55'0 0.0
2014-Nov-22 11:33N 44°25' E 008°55'0 0.0
2014-Nov-22 10:30N 44°25' E 008°55'0 0.0
2014-Nov-22 09:21N 44°25' E 008°55'0 0.0
2014-Nov-22 08:21N 44°25' E 008°55'0 0.0
2014-Nov-22 07:33N 44°25' E 008°55'5 5.5
2014-Nov-22 06:34N 44°20' E 008°59'1413.8
2014-Nov-22 05:33N 44°10' E 008°46'1515.3
2014-Nov-22 04:33N 44°01' E 008°29'1615.2
2014-Nov-22 03:32N 43°51' E 008°12'3415.4
2014-Nov-22 01:19N 43°30' E 007°35'1418.2
2014-Nov-22 00:33N 43°21' E 007°20'1818.0
2014-Nov-21 23:33N 43°10' E 007°00'1817.7
2014-Nov-21 22:33N 42°60' E 006°41'1616.5
2014-Nov-21 21:33N 42°56' E 006°19'1817.5
2014-Nov-21 20:33N 42°59' E 005°56'1817.8
2014-Nov-21 19:33N 43°05' E 005°33'1515.1
2014-Nov-21 18:33N 43°14' E 005°16'7 6.7
2014-Nov-21 17:28N 43°21' E 005°20'0 0.0
2014-Nov-21 16:31N 43°21' E 005°20'0 0.0
2014-Nov-21 15:31N 43°21' E 005°20'0 0.0
2014-Nov-21 14:28N 43°21' E 005°20'0 0.0
2014-Nov-21 13:19N 43°21' E 005°20'0 0.0
2014-Nov-21 12:28N 43°21' E 005°20'0 0.0
2014-Nov-21 11:25N 43°21' E 005°20'0 0.0
2014-Nov-21 10:31N 43°21' E 005°20'0 0.0
2014-Nov-21 09:25N 43°21' E 005°20'0 0.0
2014-Nov-21 08:28N 43°21' E 005°20'0 0.0
2014-Nov-21 07:31N 43°21' E 005°20'6 6.1
2014-Nov-21 06:33N 43°18' E 005°13'1111.4
2014-Nov-21 05:33N 43°07' E 005°06'6215.4
2014-Nov-21 01:30N 42°24' E 004°05'6716.5
2014-Nov-20 21:27N 41°39' E 002°58'1616.6
2014-Nov-20 20:30N 41°30' E 002°41'1515.9
2014-Nov-20 19:33N 41°21' E 002°25'1110.5
2014-Nov-20 18:30N 41°18' E 002°10'3 0.3
2014-Nov-20 07:33N 41°21' E 002°10'27 8.4
2014-Nov-20 04:21N 41°15' E 002°46'1010.7
2014-Nov-20 03:22N 41°15' E 002°59'6510.8
2014-Nov-19 21:20N 41°16' E 004°26'2310.5
2014-Nov-19 19:06N 41°16' E 004°57'1710.5
2014-Nov-19 17:26N 41°17' E 005°21'1310.3
2014-Nov-19 16:11N 41°17' E 005°38'1011.5
2014-Nov-19 15:18N 41°17' E 005°51'1212.3
2014-Nov-19 14:21N 41°17' E 006°07'1213.7
2014-Nov-19 13:30N 41°17' E 006°22'3114.4
2014-Nov-19 11:19N 41°18' E 007°04'156 4.1
2014-Nov-17 21:10N 43°15' E 009°24'914.3
2014-Nov-17 20:33N 43°23' E 009°17'1514.8
2014-Nov-17 19:33N 43°35' E 009°07'1514.9
2014-Nov-17 18:33N 43°48' E 008°56'1414.0
2014-Nov-17 17:33N 44°00' E 008°47'1413.5
2014-Nov-17 16:33N 44°12' E 008°37'9 8.8
2014-Nov-17 15:33N 44°19' E 008°30'0 0.0
2014-Nov-17 11:31N 44°19' E 008°30'1 0.3
2014-Nov-17 07:33N 44°19' E 008°31'9 8.8
2014-Nov-17 06:33N 44°11' E 008°28'1211.9
2014-Nov-17 05:33N 44°01' E 008°19'4113.7
2014-Nov-17 02:32N 43°32' E 007°38'1514.7
2014-Nov-17 01:32N 43°23' E 007°22'1515.3
2014-Nov-17 00:33N 43°13' E 007°06'1515.2
2014-Nov-16 23:33N 43°04' E 006°50'1514.9
2014-Nov-16 22:32N 42°56' E 006°32'1515.8
2014-Nov-16 21:33N 42°56' E 006°11'1616.3
2014-Nov-16 20:33N 43°01' E 005°50'1616.1
2014-Nov-16 19:33N 43°06' E 005°29'1514.6
2014-Nov-16 18:33N 43°16' E 005°15'6 5.4
2014-Nov-16 17:30N 43°21' E 005°20'0 0.0
2014-Nov-16 16:21N 43°21' E 005°20'0 0.0
2014-Nov-16 15:27N 43°21' E 005°20'0 0.0
2014-Nov-16 14:27N 43°21' E 005°20'0 0.0
2014-Nov-16 13:27N 43°21' E 005°20'0 0.0
2014-Nov-16 12:27N 43°21' E 005°20'0 0.0
2014-Nov-16 11:18N 43°21' E 005°20'0 0.0
2014-Nov-16 10:33N 43°21' E 005°20'0 0.0
2014-Nov-16 09:30N 43°21' E 005°20'  
Track history (hours):
 
Tides and Currents Weather Stations Pressure Air Temp Water Temp Dewpoint Dewpoint Depression Visibility Wind Speed Wind Dir Waves Ship Positions

Costa Luminosa

Last reported at 2014-Nov-26 08:33 UTC. Time now 2014-Nov-26 08:46 UTC.
Position N 43°21' E 005°20'.

Length 292 m; draft 8.1 m.

Type: Ship. MMSI: 247257900.

Date/timePositionNaut miles runAvg speedWind from/ knotsBaromVisibWave heightAir tempDewpointWater temp
2014-Nov-26 08:33N 43°21' E 005°20'0 0.1
2014-Nov-26 07:33N 43°21' E 005°20'8 8.3
2014-Nov-26 06:33N 43°16' E 005°11'1513.9
2014-Nov-26 05:31N 43°03' E 004°60'3315.5
2014-Nov-26 03:23N 42°40' E 004°28'1215.0
2014-Nov-26 02:33N 42°31' E 004°16'1615.6
2014-Nov-26 01:33N 42°20' E 004°01'1616.0
2014-Nov-26 00:33N 42°09' E 003°46'1615.4
2014-Nov-25 23:32N 41°58' E 003°31'1515.0
2014-Nov-25 22:33N 41°48' E 003°16'1515.1
2014-Nov-25 21:33N 41°39' E 002°60'1615.9
2014-Nov-25 20:33N 41°30' E 002°42'1615.9
2014-Nov-25 19:32N 41°21' E 002°24'1111.3
2014-Nov-25 18:32N 41°17' E 002°10'17 1.2
2014-Nov-25 04:32N 41°15' E 002°33'1210.6
2014-Nov-25 03:26N 41°15' E 002°48'910.7
2014-Nov-25 02:33N 41°15' E 003°01'1110.4
2014-Nov-25 01:31N 41°16' E 003°15'1010.3
2014-Nov-25 00:33N 41°16' E 003°28'1010.1
2014-Nov-24 23:33N 41°16' E 003°42'1411.0
2014-Nov-24 22:15N 41°16' E 004°01'2110.3
2014-Nov-24 20:13N 41°16' E 004°29'11 9.9
2014-Nov-24 19:09N 41°16' E 004°43'710.3
2014-Nov-24 18:28N 41°16' E 004°52'5811.4
2014-Nov-24 13:25N 41°17' E 006°09'910.4
2014-Nov-24 12:32N 41°17' E 006°21'1110.2
2014-Nov-24 11:29N 41°17' E 006°35'1310.7
2014-Nov-24 10:19N 41°18' E 006°52'18614.1
2014-Nov-23 21:08N 41°52' E 010°56'114 4.6
2014-Nov-22 20:33N 43°24' E 009°25'1514.9
2014-Nov-22 19:33N 43°38' E 009°19'1515.0
2014-Nov-22 18:33N 43°52' E 009°12'1515.2
2014-Nov-22 17:33N 44°07' E 009°05'1515.0
2014-Nov-22 16:33N 44°21' E 008°58'4 4.3
2014-Nov-22 15:33N 44°25' E 008°55'0 0.0
2014-Nov-22 14:30N 44°25' E 008°55'0 0.0
2014-Nov-22 13:21N 44°25' E 008°55'0 0.0
2014-Nov-22 12:33N 44°25' E 008°55'0 0.0
2014-Nov-22 11:33N 44°25' E 008°55'0 0.0
2014-Nov-22 10:30N 44°25' E 008°55'0 0.0
2014-Nov-22 09:21N 44°25' E 008°55'0 0.0
2014-Nov-22 08:21N 44°25' E 008°55'0 0.0
2014-Nov-22 07:33N 44°25' E 008°55'5 5.5
2014-Nov-22 06:34N 44°20' E 008°59'1413.8
2014-Nov-22 05:33N 44°10' E 008°46'1515.3
2014-Nov-22 04:33N 44°01' E 008°29'1615.2
2014-Nov-22 03:32N 43°51' E 008°12'3415.4
2014-Nov-22 01:19N 43°30' E 007°35'1418.2
2014-Nov-22 00:33N 43°21' E 007°20'1818.0
2014-Nov-21 23:33N 43°10' E 007°00'1817.7
2014-Nov-21 22:33N 42°60' E 006°41'1616.5
2014-Nov-21 21:33N 42°56' E 006°19'1817.5
2014-Nov-21 20:33N 42°59' E 005°56'1817.8
2014-Nov-21 19:33N 43°05' E 005°33'1515.1
2014-Nov-21 18:33N 43°14' E 005°16'7 6.7
2014-Nov-21 17:28N 43°21' E 005°20'0 0.0
2014-Nov-21 16:31N 43°21' E 005°20'0 0.0
2014-Nov-21 15:31N 43°21' E 005°20'0 0.0
2014-Nov-21 14:28N 43°21' E 005°20'0 0.0
2014-Nov-21 13:19N 43°21' E 005°20'0 0.0
2014-Nov-21 12:28N 43°21' E 005°20'0 0.0
2014-Nov-21 11:25N 43°21' E 005°20'0 0.0
2014-Nov-21 10:31N 43°21' E 005°20'0 0.0
2014-Nov-21 09:25N 43°21' E 005°20'0 0.0
2014-Nov-21 08:28N 43°21' E 005°20'0 0.0
2014-Nov-21 07:31N 43°21' E 005°20'6 6.1
2014-Nov-21 06:33N 43°18' E 005°13'1111.4
2014-Nov-21 05:33N 43°07' E 005°06'6215.4
2014-Nov-21 01:30N 42°24' E 004°05'6716.5
2014-Nov-20 21:27N 41°39' E 002°58'1616.6
2014-Nov-20 20:30N 41°30' E 002°41'1515.9
2014-Nov-20 19:33N 41°21' E 002°25'1110.5
2014-Nov-20 18:30N 41°18' E 002°10'3 0.3
2014-Nov-20 07:33N 41°21' E 002°10'27 8.4
2014-Nov-20 04:21N 41°15' E 002°46'1010.7
2014-Nov-20 03:22N 41°15' E 002°59'6510.8
2014-Nov-19 21:20N 41°16' E 004°26'2310.5
2014-Nov-19 19:06N 41°16' E 004°57'1710.5
2014-Nov-19 17:26N 41°17' E 005°21'1310.3
2014-Nov-19 16:11N 41°17' E 005°38'1011.5
2014-Nov-19 15:18N 41°17' E 005°51'1212.3
2014-Nov-19 14:21N 41°17' E 006°07'1213.7
2014-Nov-19 13:30N 41°17' E 006°22'3114.4
2014-Nov-19 11:19N 41°18' E 007°04'156 4.1
2014-Nov-17 21:10N 43°15' E 009°24'914.3
2014-Nov-17 20:33N 43°23' E 009°17'1514.8
2014-Nov-17 19:33N 43°35' E 009°07'1514.9
2014-Nov-17 18:33N 43°48' E 008°56'1414.0
2014-Nov-17 17:33N 44°00' E 008°47'1413.5
2014-Nov-17 16:33N 44°12' E 008°37'9 8.8
2014-Nov-17 15:33N 44°19' E 008°30'0 0.0
2014-Nov-17 11:31N 44°19' E 008°30'1 0.3
2014-Nov-17 07:33N 44°19' E 008°31'9 8.8
2014-Nov-17 06:33N 44°11' E 008°28'1211.9
2014-Nov-17 05:33N 44°01' E 008°19'4113.7
2014-Nov-17 02:32N 43°32' E 007°38'1514.7
2014-Nov-17 01:32N 43°23' E 007°22'1515.3
2014-Nov-17 00:33N 43°13' E 007°06'1515.2
2014-Nov-16 23:33N 43°04' E 006°50'1514.9
2014-Nov-16 22:32N 42°56' E 006°32'1515.8
2014-Nov-16 21:33N 42°56' E 006°11'1616.3
2014-Nov-16 20:33N 43°01' E 005°50'1616.1
2014-Nov-16 19:33N 43°06' E 005°29'1514.6
2014-Nov-16 18:33N 43°16' E 005°15'6 5.4
2014-Nov-16 17:30N 43°21' E 005°20'0 0.0
2014-Nov-16 16:21N 43°21' E 005°20'0 0.0
2014-Nov-16 15:27N 43°21' E 005°20'0 0.0
2014-Nov-16 14:27N 43°21' E 005°20'0 0.0
2014-Nov-16 13:27N 43°21' E 005°20'0 0.0
2014-Nov-16 12:27N 43°21' E 005°20'0 0.0
2014-Nov-16 11:18N 43°21' E 005°20'0 0.0
2014-Nov-16 10:33N 43°21' E 005°20'0 0.0
2014-Nov-16 09:30N 43°21' E 005°20'  

Dump ship's entire track history